When you browse on this site, cookies collect data to enhance your experience and personalize the content and advertising you see.
Visit our Privacy Policy to learn more. By continuing to use the site, you agree to this use of cookies and data.

Stündliche Wetter Strongsville

Heute, 6 August, Donnerstag

Zeit Temperatur Niederschläge Wind Luftdruck Luftfeuchtigkeit
00:00 +15°C° 0 mm 1 m/S 739 mmHg 84%
01:00 +14°C° 0 mm 1 m/S 740 mmHg 86%
02:00 +14°C° 0 mm 1 m/S 739 mmHg 86%
03:00 +13°C° 0 mm 1 m/S 739 mmHg 86%
04:00 +13°C° 0 mm 1 m/S 739 mmHg 87%
05:00 +14°C° 0 mm 1 m/S 739 mmHg 84%
06:00 +15°C° 0 mm 1 m/S 740 mmHg 82%
07:00 +16°C° 0 mm 1 m/S 740 mmHg 79%
08:00 +19°C° 0 mm 1 m/S 740 mmHg 72%
09:00 +20°C° 0 mm 2 m/S 740 mmHg 65%
10:00 +23°C° 0 mm 2 m/S 740 mmHg 58%
11:00 +23°C° 0 mm 2 m/S 740 mmHg 56%
12:00 +24°C° 0 mm 2 m/S 740 mmHg 54%
13:00 +25°C° 0 mm 2 m/S 740 mmHg 52%
14:00 +25°C° 0 mm 3 m/S 740 mmHg 56%
15:00 +25°C° 0 mm 3 m/S 739 mmHg 59%
16:00 +25°C° 0 mm 4 m/S 739 mmHg 62%
17:00 +23°C° 0 mm 4 m/S 739 mmHg 67%
18:00 +22°C° 0 mm 3 m/S 739 mmHg 73%
19:00 +20°C° 0 mm 3 m/S 739 mmHg 78%
20:00 +19°C° 0 mm 3 m/S 739 mmHg 79%
21:00 +19°C° 0 mm 3 m/S 739 mmHg 79%
22:00 +18°C° 0 mm 3 m/S 739 mmHg 79%
23:00 +17°C° 0 mm 3 m/S 739 mmHg 78%

Morgen, 7 August, Freitag

Zeit Temperatur Niederschläge Wind Luftdruck Luftfeuchtigkeit
00:00 +17°C° 0 mm 2 m/S 739 mmHg 77%
01:00 +17°C° 0 mm 2 m/S 739 mmHg 76%
02:00 +17°C° 0 mm 2 m/S 739 mmHg 79%
03:00 +17°C° 0 mm 2 m/S 739 mmHg 83%
04:00 +17°C° 0 mm 2 m/S 739 mmHg 86%
05:00 +18°C° 0 mm 2 m/S 739 mmHg 86%
06:00 +19°C° 0 mm 3 m/S 739 mmHg 87%
07:00 +19°C° 0 mm 3 m/S 740 mmHg 87%
08:00 +21°C° 0 mm 3 m/S 740 mmHg 81%
09:00 +22°C° 0 mm 4 m/S 740 mmHg 75%
10:00 +25°C° 0 mm 4 m/S 740 mmHg 69%
11:00 +25°C° 0 mm 4 m/S 740 mmHg 67%
12:00 +26°C° 0 mm 4 m/S 740 mmHg 65%
13:00 +26°C° 0 mm 5 m/S 740 mmHg 62%
14:00 +26°C° 0 mm 5 m/S 740 mmHg 64%
15:00 +26°C° 0 mm 4 m/S 739 mmHg 65%
16:00 +25°C° 0 mm 4 m/S 739 mmHg 66%
17:00 +23°C° 0 mm 4 m/S 739 mmHg 70%
18:00 +22°C° 0 mm 3 m/S 739 mmHg 75%
19:00 +20°C° 0 mm 3 m/S 740 mmHg 79%
20:00 +19°C° 0 mm 2 m/S 740 mmHg 81%
21:00 +18°C° 0 mm 2 m/S 740 mmHg 84%
22:00 +18°C° 0 mm 1 m/S 740 mmHg 86%
23:00 +18°C° 0 mm 1 m/S 740 mmHg 86%

übermorgen, 8 August, Samstag

Zeit Temperatur Niederschläge Wind Luftdruck Luftfeuchtigkeit
00:00 +18°C° 0 mm 1 m/S 740 mmHg 86%
01:00 +16°C° 0 mm 1 m/S 740 mmHg 86%
02:00 +16°C° 0 mm 1 m/S 740 mmHg 87%
03:00 +16°C° 0 mm 1 m/S 740 mmHg 88%
04:00 +16°C° 0 mm 1 m/S 740 mmHg 88%
05:00 +18°C° 0 mm 1 m/S 741 mmHg 88%
06:00 +19°C° 0 mm 1 m/S 741 mmHg 87%
07:00 +19°C° 0 mm 1 m/S 742 mmHg 87%
08:00 +21°C° 0 mm 1 m/S 742 mmHg 81%
09:00 +23°C° 0 mm 2 m/S 742 mmHg 76%
10:00 +25°C° 0 mm 2 m/S 742 mmHg 70%
11:00 +25°C° 0 mm 2 m/S 742 mmHg 67%
12:00 +26°C° 0 mm 2 m/S 742 mmHg 65%
13:00 +26°C° 0 mm 2 m/S 741 mmHg 62%
14:00 +26°C° 0 mm 2 m/S 741 mmHg 62%
15:00 +26°C° 0 mm 2 m/S 741 mmHg 61%
16:00 +26°C° 0 mm 2 m/S 740 mmHg 61%
17:00 +25°C° 0 mm 2 m/S 740 mmHg 65%
18:00 +23°C° 0 mm 2 m/S 740 mmHg 70%
19:00 +21°C° 0 mm 2 m/S 741 mmHg 74%
20:00 +21°C° 0 mm 1 m/S 741 mmHg 75%
21:00 +19°C° 0 mm 1 m/S 741 mmHg 76%
22:00 +16°C° 0 mm 0 m/S 741 mmHg 77%
23:00 +18°C° 0 mm 1 m/S 740 mmHg 78%

9 August, Sonntag

Zeit Temperatur Niederschläge Wind Luftdruck Luftfeuchtigkeit
00:00 +18°C° 0 mm 1 m/S 740 mmHg 78%
01:00 +16°C° 0 mm 1 m/S 740 mmHg 78%
02:00 +16°C° 0 mm 1 m/S 740 mmHg 81%
03:00 +16°C° 0 mm 1 m/S 740 mmHg 83%
04:00 +16°C° 0 mm 1 m/S 740 mmHg 85%
05:00 +16°C° 0 mm 1 m/S 740 mmHg 85%
06:00 +18°C° 0 mm 1 m/S 741 mmHg 86%
07:00 +19°C° 0 mm 1 m/S 741 mmHg 86%
08:00 +21°C° 0 mm 1 m/S 741 mmHg 79%
09:00 +23°C° 0 mm 1 m/S 741 mmHg 72%
10:00 +25°C° 0 mm 1 m/S 741 mmHg 65%
11:00 +26°C° 0 mm 2 m/S 741 mmHg 63%
12:00 +27°C° 0 mm 2 m/S 740 mmHg 60%
13:00 +28°C° 0 mm 2 m/S 740 mmHg 57%
14:00 +28°C° 0 mm 2 m/S 740 mmHg 58%
15:00 +28°C° 0 mm 2 m/S 740 mmHg 59%
16:00 +29°C° 0 mm 2 m/S 739 mmHg 60%
17:00 +27°C° 0 mm 1 m/S 739 mmHg 65%
18:00 +26°C° 0 mm 1 m/S 739 mmHg 70%
19:00 +25°C° 0 mm 1 m/S 738 mmHg 75%
20:00 +24°C° 0 mm 1 m/S 738 mmHg 79%
21:00 +22°C° 0 mm 1 m/S 738 mmHg 82%
22:00 +21°C° 0 mm 1 m/S 738 mmHg 86%
23:00 +20°C° 0 mm 2 m/S 738 mmHg 86%

10 August, Montag

Zeit Temperatur Niederschläge Wind Luftdruck Luftfeuchtigkeit
00:00 +19°C° 0 mm 2 m/S 738 mmHg 87%
01:00 +19°C° 0 mm 2 m/S 738 mmHg 87%
02:00 +19°C° 0 mm 2 m/S 738 mmHg 87%
03:00 +19°C° 0 mm 3 m/S 738 mmHg 88%
04:00 +18°C° 0 mm 3 m/S 738 mmHg 88%
05:00 +19°C° 0 mm 3 m/S 738 mmHg 87%
06:00 +20°C° 0 mm 3 m/S 738 mmHg 86%
07:00 +20°C° 0 mm 3 m/S 738 mmHg 85%
08:00 +22°C° 0 mm 3 m/S 738 mmHg 81%
09:00 +25°C° 0 mm 4 m/S 738 mmHg 77%
10:00 +27°C° 0 mm 4 m/S 738 mmHg 73%
11:00 +28°C° 0 mm 4 m/S 737 mmHg 71%
12:00 +30°C° 0 mm 5 m/S 737 mmHg 69%
13:00 +32°C° 0 mm 5 m/S 737 mmHg 67%
14:00 +32°C° 0 mm 5 m/S 736 mmHg 67%
15:00 +32°C° 0 mm 5 m/S 736 mmHg 67%
16:00 +32°C° 0 mm 5 m/S 736 mmHg 68%
17:00 +30°C° 0.5 mm 5 m/S 736 mmHg 73%
18:00 +28°C° 0.5 mm 4 m/S 735 mmHg 79%
19:00 +27°C° 0.5 mm 4 m/S 735 mmHg 84%
20:00 +27°C° 0 mm 3 m/S 735 mmHg 85%
21:00 +26°C° 0 mm 3 m/S 735 mmHg 86%
22:00 +25°C° 0 mm 3 m/S 735 mmHg 88%
23:00 +25°C° 0.2 mm 3 m/S 735 mmHg 88%

11 August, Dienstag

Zeit Temperatur Niederschläge Wind Luftdruck Luftfeuchtigkeit
00:00 +25°C° 0.2 mm 4 m/S 735 mmHg 89%
01:00 +23°C° 0.2 mm 4 m/S 735 mmHg 90%
02:00 +23°C° 0.3 mm 4 m/S 735 mmHg 92%
03:00 +23°C° 0.3 mm 4 m/S 735 mmHg 94%
04:00 +22°C° 0.3 mm 3 m/S 735 mmHg 95%
05:00 +22°C° 0.1 mm 3 m/S 735 mmHg 96%
06:00 +24°C° 0.1 mm 3 m/S 736 mmHg 96%
07:00 +24°C° 0.1 mm 3 m/S 736 mmHg 96%
08:00 +25°C° 0.1 mm 3 m/S 736 mmHg 92%
09:00 +26°C° 0.1 mm 3 m/S 736 mmHg 88%
10:00 +27°C° 0.1 mm 2 m/S 737 mmHg 84%
11:00 +28°C° 0 mm 3 m/S 736 mmHg 79%
12:00 +29°C° 0 mm 3 m/S 736 mmHg 75%
13:00 +29°C° 0 mm 3 m/S 736 mmHg 71%
14:00 +29°C° 0 mm 3 m/S 736 mmHg 69%
15:00 +29°C° 0 mm 3 m/S 736 mmHg 68%
16:00 +29°C° 0 mm 3 m/S 736 mmHg 67%
17:00 +28°C° 0 mm 2 m/S 736 mmHg 72%
18:00 +26°C° 0 mm 1 m/S 736 mmHg 76%
19:00 +25°C° 0 mm 1 m/S 736 mmHg 81%
20:00 +24°C° 0 mm 1 m/S 736 mmHg 82%
21:00 +23°C° 0 mm 1 m/S 736 mmHg 84%
22:00 +22°C° 0 mm 1 m/S 737 mmHg 86%
23:00 +21°C° 0 mm 1 m/S 737 mmHg 87%
Mehr zeigen